Location: Newark
(15.4608°S, 41.1635°W)
Time: 19:57:10
(UTC+00:00)

Transit 4A - All Passes

Search period start: 04 March 2021 00:00
Search period end: 14 March 2021 00:00
Orbit: 866 x 978 km, 66.8° (Epoch: 04 March)

Date Brightness Start Highest point End Pass type
(mag) Time Alt. Az. Time Alt. Az. Time Alt. Az.
04 Mar - 10:58:09 10° SSW 11:04:29 80° WNW 11:10:52 10° NNE daylight
04 Mar - 22:22:29 10° NE 22:24:54 13° ENE 22:27:21 10° E night (unlit)
05 Mar - 00:05:11 10° NW 00:10:45 49° WSW 00:16:24 10° S night (unlit)
05 Mar - 09:23:20 10° SSE 09:27:22 17° ESE 09:31:24 10° ENE daylight
05 Mar - 11:07:41 10° SW 11:13:44 48° WNW 11:19:50 10° N daylight
05 Mar - 22:29:38 10° NNE 22:34:03 23° ENE 22:38:31 10° ESE visible
06 Mar - 00:15:09 10° NW 00:20:05 29° WSW 00:25:07 10° S night (unlit)
06 Mar - 09:31:27 10° S 09:36:48 28° ESE 09:42:10 10° ENE daylight
06 Mar - 11:17:36 10° SW 11:22:56 29° WNW 11:28:19 10° NNW daylight
06 Mar - 22:37:53 10° N 22:43:14 39° ENE 22:48:37 10° SE visible
07 Mar - 00:25:47 10° WNW 00:29:31 17° WSW 00:33:17 10° SSW visible
07 Mar - 09:40:06 10° S 09:46:10 46° ESE 09:52:14 10° NE daylight
07 Mar - 11:28:10 10° WSW 11:32:07 17° WNW 11:36:05 10° NW daylight
07 Mar - 22:46:43 10° NNW 22:52:27 69° ENE 22:58:15 10° SSE visible
08 Mar - 09:49:08 10° SSW 09:55:28 76° ESE 10:01:51 10° NNE daylight
08 Mar - 22:55:57 10° NNW 23:01:41 70° WSW 23:07:31 10° SSE visible
09 Mar - 08:15:46 10° SE 08:18:11 12° ESE 08:20:37 10° E visible
09 Mar - 09:58:27 10° SSW 10:04:44 67° WNW 10:11:04 10° N daylight
09 Mar - 21:21:43 10° NE 21:25:06 16° ENE 21:28:29 10° ESE visible
09 Mar - 23:05:36 10° NW 23:11:00 41° WSW 23:16:29 10° S visible
10 Mar - 08:23:04 10° SSE 08:27:41 21° ESE 08:32:19 10° ENE visible
10 Mar - 10:08:05 10° SW 10:13:58 40° WNW 10:19:52 10° N daylight
10 Mar - 21:29:25 10° NNE 21:34:15 28° ENE 21:39:07 10° SE visible
10 Mar - 23:15:46 10° WNW 23:20:22 24° WSW 23:25:02 10° SSW visible
11 Mar - 08:31:25 10° S 08:37:06 34° ESE 08:42:47 10° NE daylight
11 Mar - 10:18:12 10° SW 10:23:10 24° WNW 10:28:09 10° NNW daylight
11 Mar - 21:37:54 10° N 21:43:26 48° ENE 21:49:01 10° SE visible
11 Mar - 23:26:49 10° W 23:29:49 14° WSW 23:32:51 10° SSW visible
12 Mar - 08:40:13 10° S 08:46:26 55° ESE 08:52:40 10° NE daylight
12 Mar - 10:29:13 10° WSW 10:32:20 14° WNW 10:35:27 10° NW daylight
12 Mar - 21:46:52 10° NNW 21:52:39 83° ENE 21:58:31 10° SSE visible
13 Mar - 08:49:20 10° SSW 08:55:44 90° ESE 09:02:08 10° NNE daylight
13 Mar - 20:15:07 10° ENE 20:16:09 10° ENE 20:17:09 10° E daylight
13 Mar - 21:56:16 10° NNW 22:01:55 58° WSW 22:07:41 10° S visible
